Regional Weather Roundup
Issued by NWS Cleveland, OH

Home | Current Version | Previous Version | Graphics & Text | Print | Product List | Glossary On
Versions: 1 2 3 4 5 6 7 8 9 10 11 12 13 14 15 16 17 18 19 20 21 22 23 24 25 26 27 28 29 30 31 32 33 34 35 36 37 38 39 40 41 42 43 44 45 46 47 48 49 50
000
ASUS41 KCLE 161002
RWRCLE
OHIO REGIONAL WEATHER ROUNDUP
NATIONAL WEATHER SERVICE CLEVELAND, OH
500 AM EST TUE JAN 16 2018

NOTE: "FAIR" INDICATES FEW OR NO CLOUDS BELOW 12,000 FEET WITH NO
SIGNIFICANT WEATHER AND/OR OBSTRUCTIONS TO VISIBILITY.

OHZ001>008-015>018-024>027-034-035-043-044-161100-
   NORTHWEST OHIO

CITY           SKY/WX    TMP DP  RH WIND       PRES   REMARKS
DEFIANCE       FAIR       1  -4  79 SW3       30.41R
FINDLAY        CLOUDY     7  -1  70 SW10      30.39R WCI  -8
TOLEDO EXPRESS FLURRIES   9   5  84 SW9       30.37R WCI  -4
TOLEDO EXEC    CLOUDY     9   4  80 SW16      30.39R HAZE    WCI  -8
LIMA           FLURRIES   6   1  80 W12       30.38S WCI  -9
$$

OHZ009>014-019>023-028>033-038-089-161100-
   NORTHEAST OHIO

CITY           SKY/WX    TMP DP  RH WIND       PRES   REMARKS
CLE-HOPKINS    FLURRIES  21  16  81 W14       30.37R WCI   8
CLE-LAKEFRONT  CLOUDY    21  16  81 W20       30.35R WCI   6
CUY CO. ARPT   NOT AVBL
LORAIN-ELYRIA  CLOUDY    13   5  70 W10       30.37R WCI   0
ASHTABULA      FAIR      18  15  88 CALM      30.33R FOG
AKRON-CANTON   CLOUDY    23  19  85 SW5       30.31S WCI  17
WOOSTER        FLURRIES  17  13  84 W13       30.33R WCI   4
MANSFIELD      CLOUDY    10   6  84 W10       30.34R WCI  -4
YOUNGSTOWN     CLOUDY    22  17  81 SW3       30.31R
$$

OHZ042-051>053-060>062-070>072-077>081-161100-
  SOUTHWEST OHIO

CITY           SKY/WX    TMP DP  RH WIND       PRES   REMARKS
CINC-COVINGTON FLURRIES  11   6  81 NW12      30.44R WCI  -3
CINC-LUNKEN    CLOUDY    13   6  74 NW7       30.50R WCI   3
HAMILTON       CLOUDY     9   1  70 W9        30.49R WCI  -4
DAYTON         CLOUDY     6   1  80 W13       30.42R WCI -10
WRIGHT-PAT AFB CLOUDY     8   0  69 W9        30.42S WCI  -5
DAYTON GENERAL MOCLDY     8   0  69 W10       30.43R WCI  -6
WILMINGTON     CLOUDY     9   3  77 W13       30.41R WCI  -7
$$

OHZ036-037-039>041-045>050-054>059-063>069-073>076-082>088-161100-
  CENTRAL AND SOUTHEAST OHIO

CITY           SKY/WX    TMP DP  RH WIND       PRES   REMARKS
COLUMBUS       CLOUDY    12   5  73 NW15      30.40R WCI  -4
OSU AIRPORT    MOCLDY    10   4  76 NW10      30.40S WCI  -4
BOLTON FIELD   CLOUDY    11   4  75 NW8       30.41S WCI  -1
RICKENBACK AFB CLOUDY    12   7  79 NW8       30.41S WCI   1
NEWARK         LGT SNOW  16  11  80 W10       30.38R WCI   4
MARION         CLOUDY     6   1  80 W7        30.39R WCI  -6
LANCASTER      LGT SNOW  15  11  83 W6        30.40S FOG     WCI   6
ZANESVILLE     LGT SNOW  24  19  81 W14       30.35R WCI  12
NEW PHILLY     NOT AVBL
$$




USA.gov is the U.S. government's official web portal to all federal, state and local government web resources and services.